Time,TemperatureF,DewpointF,PressureIn,WindDirection,WindDirectionDegrees,WindSpeedMPH,WindSpeedGustMPH,Humidity,HourlyPrecipIn,Conditions,Clouds,dailyrainin,SolarRadiationWatts/m^2,SoftwareType,DateUTC
2013-02-26 00:00:00,35.8,34.0,30.26,NW,325,0.0,2.0,93,0.00,,---,0.44,0.00,VWS V14.01,2013-02-26 08:00:00,
2013-02-26 00:01:00,35.8,34.0,30.26,NW,325,0.0,2.0,93,0.00,,---,0.44,0.00,VWS V14.01,2013-02-26 08:01:00,
2013-02-26 00:06:00,35.7,33.9,30.26,NW,325,1.0,2.0,93,0.00,,---,0.00,0.00,VWS V14.01,2013-02-26 08:06:00,
2013-02-26 00:10:00,35.7,33.9,30.26,NW,325,1.0,2.0,93,0.00,,---,0.00,0.00,VWS V14.01,2013-02-26 08:10:00,
2013-02-26 00:11:00,35.7,33.9,30.26,NW,325,1.0,2.0,93,0.00,,---,0.00,0.00,VWS V14.01,2013-02-26 08:11:00,
2013-02-26 00:16:00,35.8,34.0,30.26,NW,325,1.0,1.0,93,0.00,,---,0.00,0.00,VWS V14.01,2013-02-26 08:16:00,
2013-02-26 00:20:00,35.7,33.9,30.26,NW,325,0.0,1.0,93,0.00,,---,0.00,0.00,VWS V14.01,2013-02-26 08:20:00,
2013-02-26 00:21:00,35.8,34.0,30.26,NW,325,0.0,1.0,93,0.00,,---,0.00,0.00,VWS V14.01,2013-02-26 08:21:00,
2013-02-26 00:26:00,35.7,33.9,30.27,NW,325,0.0,0.0,93,0.00,,---,0.00,0.00,VWS V14.01,2013-02-26 08:26:00,
2013-02-26 00:30:00,35.6,33.8,30.27,NW,325,0.0,2.0,93,0.00,,---,0.00,0.00,VWS V14.01,2013-02-26 08:30:00,
2013-02-26 00:31:00,35.6,33.8,30.27,NW,325,0.0,2.0,93,0.00,,---,0.00,0.00,VWS V14.01,2013-02-26 08:31:00,
2013-02-26 00:36:00,35.5,33.7,30.26,NW,325,2.0,2.0,93,0.00,,---,0.00,0.00,VWS V14.01,2013-02-26 08:36:00,
2013-02-26 00:40:00,35.5,33.7,30.27,NW,325,0.0,2.0,93,0.00,,---,0.00,0.00,VWS V14.01,2013-02-26 08:40:00,
2013-02-26 00:41:00,35.5,33.7,30.27,NW,325,1.0,2.0,93,0.00,,---,0.00,0.00,VWS V14.01,2013-02-26 08:41:00,
2013-02-26 00:46:00,35.5,33.7,30.27,NW,325,0.0,2.0,93,0.00,,---,0.00,0.00,VWS V14.01,2013-02-26 08:46:00,
2013-02-26 00:50:00,35.4,33.6,30.27,NW,324,0.0,2.0,93,0.00,,---,0.00,0.00,VWS V14.01,2013-02-26 08:50:00,
2013-02-26 00:51:00,35.4,33.6,30.27,NW,325,2.0,2.0,93,0.00,,---,0.00,0.00,VWS V14.01,2013-02-26 08:51:00,
2013-02-26 00:56:00,35.3,33.2,30.27,NW,325,0.0,1.0,92,0.00,,---,0.00,0.00,VWS V14.01,2013-02-26 08:56:00,
2013-02-26 01:00:00,35.2,33.1,30.27,NW,325,0.0,1.0,92,0.00,,---,0.00,0.00,VWS V14.01,2013-02-26 09:00:00,
2013-02-26 01:01:00,35.2,33.1,30.27,NW,325,0.0,1.0,92,0.00,,---,0.00,0.00,VWS V14.01,2013-02-26 09:01:00,
2013-02-26 01:06:00,35.1,33.0,30.27,NW,325,0.0,0.0,92,0.00,,---,0.00,0.00,VWS V14.01,2013-02-26 09:06:00,
2013-02-26 01:10:00,35.0,33.2,30.28,NW,325,0.0,1.0,93,0.00,,---,0.00,0.00,VWS V14.01,2013-02-26 09:10:00,
2013-02-26 01:11:00,35.0,33.2,30.28,NW,325,0.0,1.0,93,0.00,,---,0.00,0.00,VWS V14.01,2013-02-26 09:11:00,
2013-02-26 01:16:00,35.0,33.2,30.28,NW,325,0.0,1.0,93,0.00,,---,0.00,0.00,VWS V14.01,2013-02-26 09:16:00,
2013-02-26 01:20:00,35.1,33.3,30.28,NW,325,0.0,2.0,93,0.00,,---,0.00,0.00,VWS V14.01,2013-02-26 09:20:00,
2013-02-26 01:21:00,35.1,33.3,30.28,NW,325,1.0,2.0,93,0.00,,---,0.00,0.00,VWS V14.01,2013-02-26 09:21:00,
2013-02-26 01:26:00,35.2,33.4,30.28,NW,325,0.0,1.0,93,0.00,,---,0.00,0.00,VWS V14.01,2013-02-26 09:26:00,
2013-02-26 01:30:00,35.2,33.4,30.28,NW,325,1.0,1.0,93,0.00,,---,0.00,0.00,VWS V14.01,2013-02-26 09:30:00,
2013-02-26 01:31:00,35.2,33.4,30.28,NW,325,1.0,1.0,93,0.00,,---,0.00,0.00,VWS V14.01,2013-02-26 09:31:00,
2013-02-26 01:36:00,35.1,33.3,30.28,NW,325,0.0,2.0,93,0.00,,---,0.00,0.00,VWS V14.01,2013-02-26 09:36:00,
2013-02-26 01:40:00,35.2,33.4,30.28,NW,325,0.0,2.0,93,0.00,,---,0.00,0.00,VWS V14.01,2013-02-26 09:40:00,
2013-02-26 01:41:00,35.2,33.4,30.28,NW,325,0.0,2.0,93,0.00,,---,0.00,0.00,VWS V14.01,2013-02-26 09:41:00,
2013-02-26 01:46:00,35.2,33.4,30.28,NW,325,1.0,1.0,93,0.00,,---,0.00,0.00,VWS V14.01,2013-02-26 09:46:00,
2013-02-26 01:50:00,35.2,33.4,30.29,SE,141,3.0,3.0,93,0.00,,---,0.00,0.00,VWS V14.01,2013-02-26 09:50:00,
2013-02-26 01:51:00,35.2,33.4,30.29,SE,141,3.0,3.0,93,0.00,,---,0.00,0.00,VWS V14.01,2013-02-26 09:51:00,
2013-02-26 01:56:00,35.2,33.4,30.29,ESE,123,1.0,4.0,93,0.00,,---,0.00,0.00,VWS V14.01,2013-02-26 09:56:00,
2013-02-26 02:00:00,35.1,33.3,30.29,ESE,123,3.0,4.0,93,0.00,,---,0.00,0.00,VWS V14.01,2013-02-26 10:00:00,
2013-02-26 02:01:00,35.1,33.3,30.29,ESE,123,3.0,4.0,93,0.00,,---,0.00,0.00,VWS V14.01,2013-02-26 10:01:00,
2013-02-26 02:06:00,35.0,33.2,30.29,ESE,107,1.0,4.0,93,0.00,,---,0.00,0.00,VWS V14.01,2013-02-26 10:06:00,
2013-02-26 02:10:00,34.9,33.1,30.29,ESE,107,0.0,4.0,93,0.00,,---,0.00,0.00,VWS V14.01,2013-02-26 10:10:00,
2013-02-26 02:11:00,34.9,33.1,30.29,ESE,107,0.0,4.0,93,0.00,,---,0.00,0.00,VWS V14.01,2013-02-26 10:11:00,
2013-02-26 02:16:00,34.7,32.6,30.29,ESE,107,0.0,2.0,92,0.00,,---,0.00,0.00,VWS V14.01,2013-02-26 10:16:00,
2013-02-26 02:20:00,34.6,32.5,30.29,ESE,107,0.0,2.0,92,0.00,,---,0.00,0.00,VWS V14.01,2013-02-26 10:20:00,
2013-02-26 02:21:00,34.6,32.5,30.29,ESE,107,0.0,2.0,92,0.00,,---,0.00,0.00,VWS V14.01,2013-02-26 10:21:00,
2013-02-26 02:26:00,34.6,32.8,30.30,ESE,107,2.0,2.0,93,0.00,,---,0.00,0.00,VWS V14.01,2013-02-26 10:26:00,
2013-02-26 02:30:00,34.6,32.8,30.29,ESE,107,2.0,2.0,93,0.00,,---,0.00,0.00,VWS V14.01,2013-02-26 10:30:00,
2013-02-26 02:31:00,34.6,32.8,30.29,ESE,107,2.0,2.0,93,0.00,,---,0.00,0.00,VWS V14.01,2013-02-26 10:31:00,
2013-02-26 02:36:00,34.5,32.7,30.29,ESE,107,1.0,2.0,93,0.00,,---,0.00,0.00,VWS V14.01,2013-02-26 10:36:00,
2013-02-26 02:40:00,34.4,32.6,30.29,ESE,107,1.0,2.0,93,0.00,,---,0.00,0.00,VWS V14.01,2013-02-26 10:40:00,
2013-02-26 02:41:00,34.4,32.6,30.29,ESE,107,1.0,2.0,93,0.00,,---,0.00,0.00,VWS V14.01,2013-02-26 10:41:00,
2013-02-26 02:46:00,34.4,32.6,30.29,ESE,107,0.0,1.0,93,0.00,,---,0.00,0.00,VWS V14.01,2013-02-26 10:46:00,
2013-02-26 02:50:00,34.4,32.6,30.29,ESE,107,0.0,1.0,93,0.00,,---,0.00,0.00,VWS V14.01,2013-02-26 10:50:00,
2013-02-26 02:51:00,34.4,32.6,30.29,ESE,107,0.0,0.0,93,0.00,,---,0.00,0.00,VWS V14.01,2013-02-26 10:51:00,
2013-02-26 02:56:00,34.4,32.6,30.29,ESE,107,2.0,2.0,93,0.00,,---,0.00,0.00,VWS V14.01,2013-02-26 10:56:00,
2013-02-26 03:00:00,34.4,32.6,30.29,ESE,107,1.0,2.0,93,0.00,,---,0.00,0.00,VWS V14.01,2013-02-26 11:00:00,
2013-02-26 03:01:00,34.4,32.6,30.29,ESE,107,1.0,2.0,93,0.00,,---,0.00,0.00,VWS V14.01,2013-02-26 11:01:00,
2013-02-26 03:06:00,34.4,32.9,30.29,ESE,107,0.0,1.0,94,0.00,,---,0.00,0.00,VWS V14.01,2013-02-26 11:06:00,
2013-02-26 03:10:00,34.4,32.8,30.29,ESE,107,0.0,1.0,94,0.00,,---,0.00,0.00,VWS V14.01,2013-02-26 11:10:00,
2013-02-26 03:11:00,34.4,32.9,30.29,ESE,107,0.0,0.0,94,0.00,,---,0.00,0.00,VWS V14.01,2013-02-26 11:11:00,
2013-02-26 03:16:00,34.4,32.9,30.29,ESE,107,0.0,0.0,94,0.00,,---,0.00,0.00,VWS V14.01,2013-02-26 11:16:00,
2013-02-26 03:20:00,34.4,32.8,30.29,ESE,107,0.0,1.0,94,0.00,,---,0.00,0.00,VWS V14.01,2013-02-26 11:20:00,
2013-02-26 03:21:00,34.4,32.9,30.29,ESE,107,0.0,0.0,94,0.00,,---,0.00,0.00,VWS V14.01,2013-02-26 11:21:00,
2013-02-26 03:26:00,34.4,32.9,30.29,ESE,107,0.0,2.0,94,0.00,,---,0.00,0.00,VWS V14.01,2013-02-26 11:26:00,
2013-02-26 03:30:00,34.3,32.8,30.30,ESE,107,0.0,2.0,94,0.00,,---,0.00,0.00,VWS V14.01,2013-02-26 11:30:00,
2013-02-26 03:31:00,34.3,32.8,30.30,ESE,107,0.0,0.0,94,0.00,,---,0.00,0.00,VWS V14.01,2013-02-26 11:31:00,
2013-02-26 03:36:00,34.2,32.7,30.30,ESE,107,0.0,2.0,94,0.00,,---,0.00,0.00,VWS V14.01,2013-02-26 11:36:00,
2013-02-26 03:40:00,34.3,32.8,30.30,ESE,107,0.0,2.0,94,0.00,,---,0.00,0.00,VWS V14.01,2013-02-26 11:40:00,
2013-02-26 03:41:00,34.3,32.8,30.30,ESE,107,0.0,0.0,94,0.00,,---,0.00,0.00,VWS V14.01,2013-02-26 11:41:00,
2013-02-26 03:46:00,34.4,32.9,30.30,ESE,107,0.0,2.0,94,0.00,,---,0.00,0.00,VWS V14.01,2013-02-26 11:46:00,
2013-02-26 03:50:00,34.5,33.0,30.30,ESE,107,0.0,2.0,94,0.00,,---,0.00,0.00,VWS V14.01,2013-02-26 11:50:00,
2013-02-26 03:51:00,34.5,33.0,30.30,ESE,107,0.0,0.0,94,0.00,,---,0.00,0.00,VWS V14.01,2013-02-26 11:51:00,
2013-02-26 03:56:00,34.6,33.0,30.30,ESE,107,0.0,2.0,94,0.00,,---,0.00,0.00,VWS V14.01,2013-02-26 11:56:00,
2013-02-26 04:00:00,34.7,33.2,30.30,ESE,107,0.0,2.0,94,0.00,,---,0.00,0.00,VWS V14.01,2013-02-26 12:00:00,
2013-02-26 04:01:00,34.7,33.2,30.30,ESE,107,0.0,0.0,94,0.00,,---,0.00,0.00,VWS V14.01,2013-02-26 12:01:00,
2013-02-26 04:06:00,34.8,33.2,30.30,ESE,107,0.0,0.0,94,0.00,,---,0.00,0.00,VWS V14.01,2013-02-26 12:06:00,
2013-02-26 04:10:00,34.8,33.2,30.30,ESE,107,1.0,1.0,94,0.00,,---,0.00,0.00,VWS V14.01,2013-02-26 12:10:00,
2013-02-26 04:11:00,34.8,33.2,30.30,ESE,107,1.0,1.0,94,0.00,,---,0.00,0.00,VWS V14.01,2013-02-26 12:11:00,
2013-02-26 04:16:00,34.8,33.2,30.30,ESE,107,0.0,2.0,94,0.00,,---,0.00,0.00,VWS V14.01,2013-02-26 12:16:00,
2013-02-26 04:20:00,34.8,33.2,30.30,ESE,107,0.0,2.0,94,0.00,,---,0.00,0.00,VWS V14.01,2013-02-26 12:20:00,
2013-02-26 04:21:00,34.9,33.3,30.30,ESE,107,0.0,0.0,94,0.00,,---,0.00,0.00,VWS V14.01,2013-02-26 12:21:00,
2013-02-26 04:26:00,34.8,33.2,30.30,ESE,107,0.0,2.0,94,0.00,,---,0.00,0.00,VWS V14.01,2013-02-26 12:26:00,
2013-02-26 04:30:00,34.8,33.2,30.30,ESE,107,0.0,2.0,94,0.00,,---,0.00,0.00,VWS V14.01,2013-02-26 12:30:00,
2013-02-26 04:31:00,34.8,33.2,30.30,ESE,107,0.0,0.0,94,0.00,,---,0.00,0.00,VWS V14.01,2013-02-26 12:31:00,
2013-02-26 04:36:00,34.8,33.0,30.30,ESE,107,0.0,2.0,93,0.00,,---,0.00,0.00,VWS V14.01,2013-02-26 12:36:00,
2013-02-26 04:40:00,34.8,33.0,30.30,ESE,103,0.0,2.0,93,0.00,,---,0.00,0.00,VWS V14.01,2013-02-26 12:40:00,
2013-02-26 04:41:00,34.8,33.0,30.30,ESE,103,0.0,0.0,93,0.00,,---,0.00,0.00,VWS V14.01,2013-02-26 12:41:00,
2013-02-26 04:46:00,34.8,33.2,30.30,ESE,103,0.0,0.0,94,0.00,,---,0.00,0.00,VWS V14.01,2013-02-26 12:46:00,
2013-02-26 04:50:00,34.8,33.2,30.31,ESE,103,0.0,0.0,94,0.00,,---,0.00,0.00,VWS V14.01,2013-02-26 12:50:00,
2013-02-26 04:51:00,34.9,33.3,30.31,ESE,103,0.0,0.0,94,0.00,,---,0.00,0.00,VWS V14.01,2013-02-26 12:51:00,
2013-02-26 04:56:00,34.9,33.3,30.31,ESE,104,1.0,2.0,94,0.00,,---,0.00,0.00,VWS V14.01,2013-02-26 12:56:00,
2013-02-26 05:00:00,34.9,33.3,30.31,ESE,104,0.0,2.0,94,0.00,,---,0.00,0.00,VWS V14.01,2013-02-26 13:00:00,
2013-02-26 05:01:00,34.9,33.3,30.31,ESE,104,0.0,0.0,94,0.00,,---,0.00,0.00,VWS V14.01,2013-02-26 13:01:00,
2013-02-26 05:06:00,35.0,33.5,30.31,ESE,104,0.0,0.0,94,0.00,,---,0.00,0.00,VWS V14.01,2013-02-26 13:06:00,
2013-02-26 05:10:00,35.0,33.2,30.31,ESE,104,0.0,0.0,93,0.00,,---,0.00,0.00,VWS V14.01,2013-02-26 13:10:00,
2013-02-26 05:11:00,35.0,33.2,30.31,ESE,104,0.0,0.0,93,0.00,,---,0.00,0.00,VWS V14.01,2013-02-26 13:11:00,
2013-02-26 05:16:00,35.1,33.3,30.31,ESE,105,1.0,2.0,93,0.00,,---,0.00,0.00,VWS V14.01,2013-02-26 13:16:00,
2013-02-26 05:20:00,35.2,33.7,30.31,East,100,5.0,5.0,94,0.00,,---,0.00,0.00,VWS V14.01,2013-02-26 13:20:00,
2013-02-26 05:21:00,35.2,33.7,30.31,ESE,109,3.0,7.0,94,0.00,,---,0.00,0.00,VWS V14.01,2013-02-26 13:21:00,
2013-02-26 05:26:00,35.4,33.8,30.31,SE,146,0.0,7.0,94,0.00,,---,0.00,0.00,VWS V14.01,2013-02-26 13:26:00,
2013-02-26 05:30:00,35.7,34.2,30.31,ESE,118,3.0,7.0,94,0.00,,---,0.00,0.00,VWS V14.01,2013-02-26 13:30:00,
2013-02-26 05:31:00,35.8,34.2,30.31,ESE,111,5.0,5.0,94,0.00,,---,0.00,0.00,VWS V14.01,2013-02-26 13:31:00,
2013-02-26 05:36:00,36.1,34.5,30.31,ESE,118,0.0,9.0,94,0.00,,---,0.00,0.00,VWS V14.01,2013-02-26 13:36:00,
2013-02-26 05:40:00,36.3,34.7,30.32,East,90,0.0,9.0,94,0.00,,---,0.00,0.00,VWS V14.01,2013-02-26 13:40:00,
2013-02-26 05:41:00,36.3,34.7,30.31,East,90,0.0,2.0,94,0.00,,---,0.00,0.00,VWS V14.01,2013-02-26 13:41:00,
2013-02-26 05:46:00,36.5,34.9,30.31,ESE,103,1.0,4.0,94,0.00,,---,0.00,0.00,VWS V14.01,2013-02-26 13:46:00,
2013-02-26 05:50:00,37.3,35.7,30.32,SE,128,0.0,4.0,94,0.00,,---,0.00,0.00,VWS V14.01,2013-02-26 13:50:00,
2013-02-26 05:59:00,36.9,35.3,30.31,SE,126,0.0,1.0,94,0.00,,---,0.00,0.00,VWS V14.01,2013-02-26 13:59:00,
2013-02-26 06:00:00,37.0,35.4,30.31,SE,126,0.0,1.0,94,0.00,,---,0.00,0.00,VWS V14.01,2013-02-26 14:00:00,
2013-02-26 06:04:00,37.0,35.4,30.31,SE,126,0.0,1.0,94,0.00,,---,0.00,0.00,VWS V14.01,2013-02-26 14:04:00,
2013-02-26 06:09:00,37.0,35.4,30.32,ESE,106,1.0,3.0,94,0.00,,---,0.00,0.00,VWS V14.01,2013-02-26 14:09:00,
2013-02-26 06:10:00,37.1,35.5,30.32,ESE,102,1.0,3.0,94,0.00,,---,0.00,0.00,VWS V14.01,2013-02-26 14:10:00,
2013-02-26 06:14:00,37.1,35.5,30.32,ESE,102,0.0,1.0,94,0.00,,---,0.00,0.00,VWS V14.01,2013-02-26 14:14:00,
2013-02-26 06:19:00,37.1,35.5,30.32,East,97,0.0,2.0,94,0.00,,---,0.00,0.00,VWS V14.01,2013-02-26 14:19:00,
2013-02-26 06:20:00,37.2,35.6,30.31,East,94,0.0,2.0,94,0.00,,---,0.00,0.00,VWS V14.01,2013-02-26 14:20:00,
2013-02-26 06:24:00,37.2,35.6,30.31,East,94,0.0,2.0,94,0.00,,---,0.00,0.00,VWS V14.01,2013-02-26 14:24:00,
2013-02-26 06:29:00,37.2,35.6,30.32,ESE,121,0.0,6.0,94,0.00,,---,0.00,0.00,VWS V14.01,2013-02-26 14:29:00,
2013-02-26 06:30:00,37.2,35.6,30.32,ESE,121,0.0,6.0,94,0.00,,---,0.00,0.00,VWS V14.01,2013-02-26 14:30:00,
2013-02-26 06:34:00,37.2,35.6,30.32,ESE,118,1.0,3.0,94,0.00,,---,0.00,0.00,VWS V14.01,2013-02-26 14:34:00,
2013-02-26 06:39:00,37.3,35.7,30.32,ESE,107,0.0,3.0,94,0.00,,---,0.00,0.00,VWS V14.01,2013-02-26 14:39:00,
2013-02-26 06:40:00,37.3,35.7,30.32,ESE,107,0.0,3.0,94,0.00,,---,0.00,0.00,VWS V14.01,2013-02-26 14:40:00,
2013-02-26 06:44:00,37.3,35.7,30.32,SE,134,1.0,4.0,94,0.00,,---,0.00,0.00,VWS V14.01,2013-02-26 14:44:00,
2013-02-26 06:49:00,37.3,35.7,30.32,SE,128,0.0,4.0,94,0.00,,---,0.00,0.00,VWS V14.01,2013-02-26 14:49:00,
2013-02-26 06:50:00,37.3,35.7,30.32,SE,128,0.0,4.0,94,0.00,,---,0.00,0.00,VWS V14.01,2013-02-26 14:50:00,
2013-02-26 06:54:00,37.4,35.8,30.32,SE,128,0.0,2.0,94,0.00,,---,0.00,0.00,VWS V14.01,2013-02-26 14:54:00,
2013-02-26 06:59:00,37.4,35.8,30.32,NNE,32,0.0,3.0,94,0.00,,---,0.00,0.00,VWS V14.01,2013-02-26 14:59:00,
2013-02-26 07:00:00,37.5,35.9,30.32,NE,35,0.0,3.0,94,0.00,,---,0.00,0.00,VWS V14.01,2013-02-26 15:00:00,
2013-02-26 07:04:00,37.5,35.9,30.32,ENE,57,0.0,1.0,94,0.00,,---,0.00,0.00,VWS V14.01,2013-02-26 15:04:00,
2013-02-26 07:09:00,37.6,36.0,30.32,SE,140,0.0,5.0,94,0.00,,---,0.00,5.00,VWS V14.01,2013-02-26 15:09:00,
2013-02-26 07:10:00,37.7,36.1,30.32,SE,143,0.0,5.0,94,0.00,,---,0.00,5.00,VWS V14.01,2013-02-26 15:10:00,
2013-02-26 07:14:00,37.7,36.1,30.32,SE,127,0.0,6.0,94,0.00,,---,0.00,0.00,VWS V14.01,2013-02-26 15:14:00,
2013-02-26 07:19:00,37.9,36.3,30.32,ESE,111,2.0,6.0,94,0.00,,---,0.00,0.00,VWS V14.01,2013-02-26 15:19:00,
2013-02-26 07:20:00,37.9,36.3,30.32,ESE,111,1.0,6.0,94,0.00,,---,0.00,0.00,VWS V14.01,2013-02-26 15:20:00,
2013-02-26 07:24:00,37.9,36.3,30.32,ESE,108,2.0,5.0,94,0.00,,---,0.00,5.00,VWS V14.01,2013-02-26 15:24:00,
2013-02-26 07:29:00,38.1,36.5,30.32,SE,128,2.0,8.0,94,0.00,,---,0.00,0.00,VWS V14.01,2013-02-26 15:29:00,
2013-02-26 07:30:00,38.1,36.5,30.32,SE,132,4.0,8.0,94,0.00,,---,0.00,0.00,VWS V14.01,2013-02-26 15:30:00,
2013-02-26 07:34:00,38.1,36.5,30.32,ESE,121,4.0,4.0,94,0.01,,---,0.01,0.00,VWS V14.01,2013-02-26 15:34:00,
2013-02-26 07:39:00,38.1,36.5,30.32,ESE,107,0.0,6.0,94,0.02,,---,0.02,0.00,VWS V14.01,2013-02-26 15:39:00,
2013-02-26 07:40:00,38.0,36.4,30.32,ESE,109,0.0,6.0,94,0.02,,---,0.02,0.00,VWS V14.01,2013-02-26 15:40:00,
2013-02-26 07:44:00,38.0,36.4,30.32,ESE,109,0.0,0.0,94,0.02,,---,0.02,0.00,VWS V14.01,2013-02-26 15:44:00,
2013-02-26 07:49:00,37.9,36.3,30.32,SE,133,0.0,7.0,94,0.03,,---,0.03,7.00,VWS V14.01,2013-02-26 15:49:00,
2013-02-26 07:50:00,37.9,36.3,30.33,SE,133,2.0,7.0,94,0.03,,---,0.03,9.00,VWS V14.01,2013-02-26 15:50:00,
2013-02-26 07:54:00,37.9,36.3,30.33,ESE,118,3.0,7.0,94,0.04,,---,0.04,11.00,VWS V14.01,2013-02-26 15:54:00,
2013-02-26 07:59:00,37.8,36.2,30.33,ESE,106,1.0,7.0,94,0.04,,---,0.04,7.00,VWS V14.01,2013-02-26 15:59:00,
2013-02-26 08:00:00,37.7,36.1,30.33,ESE,104,2.0,10.0,94,0.04,,---,0.04,7.00,VWS V14.01,2013-02-26 16:00:00,
2013-02-26 08:04:00,37.7,36.1,30.33,ESE,113,2.0,6.0,94,0.04,,---,0.04,9.00,VWS V14.01,2013-02-26 16:04:00,
2013-02-26 08:09:00,37.7,36.1,30.33,East,101,3.0,7.0,94,0.04,,---,0.04,9.00,VWS V14.01,2013-02-26 16:09:00,
2013-02-26 08:10:00,37.7,36.1,30.33,ESE,118,2.0,7.0,94,0.04,,---,0.04,11.00,VWS V14.01,2013-02-26 16:10:00,
2013-02-26 08:14:00,37.7,36.4,30.33,ESE,106,3.0,5.0,95,0.04,,---,0.04,14.00,VWS V14.01,2013-02-26 16:14:00,
2013-02-26 08:19:00,37.7,36.4,30.32,ESE,111,0.0,5.0,95,0.04,,---,0.04,23.00,VWS V14.01,2013-02-26 16:19:00,
2013-02-26 08:20:00,37.8,36.5,30.32,ESE,113,3.0,5.0,95,0.04,,---,0.04,26.00,VWS V14.01,2013-02-26 16:20:00,
2013-02-26 08:24:00,37.8,36.5,30.33,ESE,109,0.0,5.0,95,0.04,,---,0.04,26.00,VWS V14.01,2013-02-26 16:24:00,
2013-02-26 08:29:00,37.8,36.5,30.33,ESE,115,1.0,7.0,95,0.04,,---,0.04,26.00,VWS V14.01,2013-02-26 16:29:00,
2013-02-26 08:30:00,37.8,36.5,30.33,SE,136,4.0,7.0,95,0.04,,---,0.04,30.00,VWS V14.01,2013-02-26 16:30:00,
2013-02-26 08:34:00,37.8,36.5,30.33,ESE,107,0.0,7.0,95,0.04,,---,0.04,37.00,VWS V14.01,2013-02-26 16:34:00,
2013-02-26 08:39:00,37.8,36.5,30.33,ESE,111,3.0,7.0,95,0.05,,---,0.05,35.00,VWS V14.01,2013-02-26 16:39:00,
2013-02-26 08:40:00,37.9,36.6,30.33,ESE,111,4.0,8.0,95,0.05,,---,0.05,30.00,VWS V14.01,2013-02-26 16:40:00,
2013-02-26 08:44:00,37.9,36.6,30.33,ESE,115,0.0,7.0,95,0.03,,---,0.05,30.00,VWS V14.01,2013-02-26 16:44:00,
2013-02-26 08:49:00,37.9,36.6,30.33,ESE,109,2.0,8.0,95,0.03,,---,0.05,37.00,VWS V14.01,2013-02-26 16:49:00,
2013-02-26 08:50:00,37.9,36.6,30.33,ESE,117,5.0,9.0,95,0.03,,---,0.05,39.00,VWS V14.01,2013-02-26 16:50:00,
2013-02-26 08:54:00,37.9,36.6,30.33,ESE,112,5.0,8.0,95,0.02,,---,0.05,42.00,VWS V14.01,2013-02-26 16:54:00,
2013-02-26 08:59:00,37.9,36.6,30.33,ESE,113,3.0,9.0,95,0.02,,---,0.05,53.00,VWS V14.01,2013-02-26 16:59:00,
2013-02-26 09:00:00,38.0,36.7,30.33,ESE,111,2.0,9.0,95,0.02,,---,0.05,60.00,VWS V14.01,2013-02-26 17:00:00,
2013-02-26 09:04:00,38.0,36.7,30.33,ESE,109,3.0,6.0,95,0.01,,---,0.05,77.00,VWS V14.01,2013-02-26 17:04:00,
2013-02-26 09:09:00,38.1,36.8,30.33,ESE,114,4.0,8.0,95,0.01,,---,0.05,84.00,VWS V14.01,2013-02-26 17:09:00,
2013-02-26 09:10:00,38.1,36.8,30.33,ESE,103,5.0,8.0,95,0.01,,---,0.05,83.00,VWS V14.01,2013-02-26 17:10:00,
2013-02-26 09:14:00,38.2,36.9,30.33,ESE,112,3.0,8.0,95,0.01,,---,0.05,88.00,VWS V14.01,2013-02-26 17:14:00,
2013-02-26 09:19:00,38.3,37.0,30.33,ESE,113,7.0,8.0,95,0.01,,---,0.05,104.00,VWS V14.01,2013-02-26 17:19:00,
2013-02-26 09:20:00,38.3,37.0,30.33,ESE,109,2.0,10.0,95,0.01,,---,0.05,113.00,VWS V14.01,2013-02-26 17:20:00,
2013-02-26 09:24:00,38.4,37.1,30.33,ESE,110,7.0,9.0,95,0.01,,---,0.05,144.00,VWS V14.01,2013-02-26 17:24:00,
2013-02-26 09:29:00,38.6,37.3,30.33,ESE,109,3.0,9.0,95,0.01,,---,0.05,137.00,VWS V14.01,2013-02-26 17:29:00,
2013-02-26 09:30:00,38.6,37.3,30.33,ESE,107,5.0,9.0,95,0.01,,---,0.05,130.00,VWS V14.01,2013-02-26 17:30:00,
2013-02-26 09:34:00,38.8,37.5,30.33,ESE,123,0.0,7.0,95,0.01,,---,0.05,116.00,VWS V14.01,2013-02-26 17:34:00,
2013-02-26 09:39:00,38.9,37.6,30.33,SE,128,4.0,7.0,95,0.01,,---,0.05,109.00,VWS V14.01,2013-02-26 17:39:00,
2013-02-26 09:40:00,38.9,37.6,30.33,ESE,110,3.0,8.0,95,0.01,,---,0.05,107.00,VWS V14.01,2013-02-26 17:40:00,
2013-02-26 09:44:00,39.0,37.7,30.33,ESE,121,4.0,5.0,95,0.00,,---,0.05,107.00,VWS V14.01,2013-02-26 17:44:00,
2013-02-26 09:50:00,39.1,37.8,30.33,ESE,107,4.0,8.0,95,0.00,,---,0.05,109.00,VWS V14.01,2013-02-26 17:50:00,
2013-02-26 09:55:00,39.2,37.9,30.33,ESE,110,2.0,4.0,95,0.00,,---,0.05,86.00,VWS V14.01,2013-02-26 17:55:00,
2013-02-26 10:00:00,39.2,37.9,30.33,ESE,118,3.0,7.0,95,0.00,,---,0.05,72.00,VWS V14.01,2013-02-26 18:00:00,
2013-02-26 10:05:00,39.3,37.7,30.33,ESE,121,0.0,7.0,94,0.00,,---,0.05,93.00,VWS V14.01,2013-02-26 18:05:00,
2013-02-26 10:10:00,39.3,37.7,30.33,ESE,115,0.0,7.0,94,0.00,,---,0.05,72.00,VWS V14.01,2013-02-26 18:10:00,
2013-02-26 10:15:00,39.3,37.7,30.33,ESE,117,0.0,5.0,94,0.00,,---,0.05,83.00,VWS V14.01,2013-02-26 18:15:00,
2013-02-26 10:20:00,39.5,37.9,30.33,ESE,106,1.0,8.0,94,0.00,,---,0.05,118.00,VWS V14.01,2013-02-26 18:20:00,
2013-02-26 10:25:00,39.5,37.9,30.32,ESE,109,3.0,5.0,94,0.00,,---,0.05,130.00,VWS V14.01,2013-02-26 18:25:00,
2013-02-26 10:30:00,39.7,38.1,30.32,ESE,111,0.0,5.0,94,0.00,,---,0.05,121.00,VWS V14.01,2013-02-26 18:30:00,
2013-02-26 10:35:00,39.9,38.3,30.32,ESE,111,2.0,4.0,94,0.00,,---,0.05,139.00,VWS V14.01,2013-02-26 18:35:00,
2013-02-26 10:40:00,40.1,38.5,30.32,ESE,121,0.0,7.0,94,0.00,,---,0.05,183.00,VWS V14.01,2013-02-26 18:40:00,
2013-02-26 10:45:00,40.7,39.1,30.32,ESE,123,3.0,5.0,94,0.00,,---,0.05,169.00,VWS V14.01,2013-02-26 18:45:00,
2013-02-26 10:50:00,41.3,39.4,30.32,ESE,115,4.0,5.0,93,0.00,,---,0.05,169.00,VWS V14.01,2013-02-26 18:50:00,
2013-02-26 10:55:00,41.6,39.5,30.32,SE,143,6.0,7.0,92,0.00,,---,0.05,237.00,VWS V14.01,2013-02-26 18:55:00,
2013-02-26 11:00:00,42.1,40.0,30.31,ESE,120,4.0,8.0,92,0.00,,---,0.05,236.00,VWS V14.01,2013-02-26 19:00:00,
2013-02-26 11:05:00,42.1,39.4,30.31,ESE,121,4.0,7.0,90,0.00,,---,0.05,250.00,VWS V14.01,2013-02-26 19:05:00,
2013-02-26 11:10:00,42.2,39.2,30.31,ESE,107,3.0,7.0,89,0.00,,---,0.05,288.00,VWS V14.01,2013-02-26 19:10:00,
2013-02-26 11:15:00,42.6,39.6,30.31,SE,131,0.0,2.0,89,0.00,,---,0.05,237.00,VWS V14.01,2013-02-26 19:15:00,
2013-02-26 11:20:00,42.8,39.5,30.31,SSW,192,2.0,5.0,88,0.00,,---,0.05,209.00,VWS V14.01,2013-02-26 19:20:00,
2013-02-26 11:25:00,42.8,39.2,30.31,SSE,167,0.0,4.0,87,0.00,,---,0.05,165.00,VWS V14.01,2013-02-26 19:25:00,
2013-02-26 11:30:00,42.8,39.2,30.31,ESE,106,4.0,4.0,87,0.00,,---,0.05,186.00,VWS V14.01,2013-02-26 19:30:00,
2013-02-26 11:35:00,42.8,38.9,30.31,ESE,123,0.0,6.0,86,0.00,,---,0.05,199.00,VWS V14.01,2013-02-26 19:35:00,
2013-02-26 11:40:00,43.0,39.1,30.31,SE,127,2.0,6.0,86,0.00,,---,0.05,239.00,VWS V14.01,2013-02-26 19:40:00,
2013-02-26 11:45:00,43.2,39.3,30.31,SE,127,0.0,5.0,86,0.00,,---,0.05,237.00,VWS V14.01,2013-02-26 19:45:00,
2013-02-26 11:50:00,43.3,39.1,30.30,ESE,119,0.0,8.0,85,0.00,,---,0.05,216.00,VWS V14.01,2013-02-26 19:50:00,
2013-02-26 11:55:00,43.3,38.8,30.30,SE,134,0.0,3.0,84,0.00,,---,0.05,158.00,VWS V14.01,2013-02-26 19:55:00,
2013-02-26 12:00:00,43.3,38.8,30.30,East,86,0.0,7.0,84,0.00,,---,0.05,158.00,VWS V14.01,2013-02-26 20:00:00,
2013-02-26 12:05:00,43.3,38.8,30.30,SE,133,2.0,5.0,84,0.00,,---,0.05,128.00,VWS V14.01,2013-02-26 20:05:00,
2013-02-26 12:10:00,43.3,38.5,30.30,ESE,119,3.0,8.0,83,0.00,,---,0.05,109.00,VWS V14.01,2013-02-26 20:10:00,
2013-02-26 12:15:00,43.2,38.4,30.30,East,97,2.0,9.0,83,0.00,,---,0.05,113.00,VWS V14.01,2013-02-26 20:15:00,
2013-02-26 12:20:00,43.1,38.3,30.30,ESE,102,2.0,9.0,83,0.00,,---,0.05,114.00,VWS V14.01,2013-02-26 20:20:00,
2013-02-26 12:25:00,43.1,38.3,30.30,SE,145,4.0,6.0,83,0.00,,---,0.05,90.00,VWS V14.01,2013-02-26 20:25:00,
2013-02-26 12:30:00,43.0,38.2,30.29,ESE,122,5.0,8.0,83,0.00,,---,0.05,95.00,VWS V14.01,2013-02-26 20:30:00,
2013-02-26 12:35:00,43.0,38.5,30.29,East,93,6.0,11.0,84,0.00,,---,0.05,77.00,VWS V14.01,2013-02-26 20:35:00,
2013-02-26 12:40:00,42.8,38.3,30.29,SE,135,2.0,11.0,84,0.00,,---,0.05,74.00,VWS V14.01,2013-02-26 20:40:00,
2013-02-26 12:45:00,42.6,38.1,30.29,ESE,113,4.0,10.0,84,0.00,,---,0.05,74.00,VWS V14.01,2013-02-26 20:45:00,
2013-02-26 12:50:00,42.3,38.1,30.29,SE,136,0.0,11.0,85,0.00,,---,0.05,86.00,VWS V14.01,2013-02-26 20:50:00,
2013-02-26 12:55:00,42.2,38.0,30.29,ESE,123,2.0,8.0,85,0.00,,---,0.05,79.00,VWS V14.01,2013-02-26 20:55:00,
2013-02-26 13:00:00,42.2,38.3,30.29,SE,126,0.0,8.0,86,0.00,,---,0.05,81.00,VWS V14.01,2013-02-26 21:00:00,
2013-02-26 13:05:00,42.1,38.5,30.29,SE,130,5.0,5.0,87,0.00,,---,0.05,77.00,VWS V14.01,2013-02-26 21:05:00,
2013-02-26 13:10:00,42.1,38.5,30.29,SE,126,2.0,5.0,87,0.00,,---,0.05,77.00,VWS V14.01,2013-02-26 21:10:00,
2013-02-26 13:15:00,42.0,38.4,30.29,ESE,117,0.0,4.0,87,0.00,,---,0.05,77.00,VWS V14.01,2013-02-26 21:15:00,
2013-02-26 13:20:00,41.9,38.3,30.28,ESE,122,4.0,4.0,87,0.00,,---,0.05,76.00,VWS V14.01,2013-02-26 21:20:00,
2013-02-26 13:25:00,41.9,38.3,30.28,East,88,3.0,5.0,87,0.00,,---,0.05,70.00,VWS V14.01,2013-02-26 21:25:00,
2013-02-26 13:34:00,41.8,38.5,30.28,SE,127,0.0,2.0,88,0.01,,---,0.06,54.00,VWS V14.01,2013-02-26 21:34:00,
2013-02-26 13:39:00,41.8,38.5,30.28,NE,47,1.0,3.0,88,0.01,,---,0.06,53.00,VWS V14.01,2013-02-26 21:39:00,
2013-02-26 13:40:00,41.8,38.8,30.28,ESE,103,2.0,3.0,89,0.01,,---,0.06,51.00,VWS V14.01,2013-02-26 21:40:00,
2013-02-26 13:44:00,41.8,38.8,30.28,ESE,102,0.0,2.0,89,0.01,,---,0.06,49.00,VWS V14.01,2013-02-26 21:44:00,
2013-02-26 13:49:00,41.7,38.7,30.28,NNE,16,0.0,3.0,89,0.01,,---,0.06,51.00,VWS V14.01,2013-02-26 21:49:00,
2013-02-26 13:50:00,41.6,38.6,30.28,NNE,16,0.0,3.0,89,0.01,,---,0.06,53.00,VWS V14.01,2013-02-26 21:50:00,
2013-02-26 13:54:00,41.6,38.6,30.27,NNE,16,0.0,1.0,89,0.01,,---,0.06,54.00,VWS V14.01,2013-02-26 21:54:00,
2013-02-26 13:59:00,41.6,38.9,30.27,East,100,0.0,7.0,90,0.01,,---,0.06,62.00,VWS V14.01,2013-02-26 21:59:00,
2013-02-26 14:00:00,41.5,38.8,30.27,East,101,3.0,7.0,90,0.02,,---,0.06,63.00,VWS V14.01,2013-02-26 22:00:00,
2013-02-26 14:04:00,41.4,38.4,30.27,ESE,112,1.0,4.0,89,0.02,,---,0.06,67.00,VWS V14.01,2013-02-26 22:04:00,
2013-02-26 14:09:00,41.4,38.7,30.27,NE,36,1.0,5.0,90,0.02,,---,0.06,62.00,VWS V14.01,2013-02-26 22:09:00,
2013-02-26 14:10:00,41.3,38.6,30.27,NNW,344,3.0,5.0,90,0.02,,---,0.06,63.00,VWS V14.01,2013-02-26 22:10:00,
2013-02-26 14:14:00,41.3,38.6,30.27,NNW,346,0.0,3.0,90,0.02,,---,0.06,60.00,VWS V14.01,2013-02-26 22:14:00,
2013-02-26 14:19:00,41.3,38.6,30.27,East,83,0.0,3.0,90,0.02,,---,0.06,58.00,VWS V14.01,2013-02-26 22:19:00,
2013-02-26 14:20:00,41.2,38.5,30.27,East,83,1.0,3.0,90,0.02,,---,0.06,58.00,VWS V14.01,2013-02-26 22:20:00,
2013-02-26 14:24:00,41.2,38.5,30.27,East,83,0.0,1.0,90,0.02,,---,0.06,54.00,VWS V14.01,2013-02-26 22:24:00,
2013-02-26 14:29:00,41.2,38.8,30.26,East,83,0.0,1.0,91,0.02,,---,0.06,53.00,VWS V14.01,2013-02-26 22:29:00,
2013-02-26 14:30:00,41.1,39.0,30.25,NE,36,1.0,3.0,92,0.01,,---,0.07,37.00,VWS V14.01,2013-02-26 22:30:00,
2013-02-26 14:37:00,41.2,38.5,30.26,NE,44,0.0,1.0,90,0.02,,---,0.06,47.00,VWS V14.01,2013-02-26 22:37:00,
2013-02-26 14:40:00,41.1,39.0,30.24,NNE,27,1.0,3.0,92,0.01,,---,0.07,46.00,VWS V14.01,2013-02-26 22:40:00,
2013-02-26 14:42:00,41.2,38.8,30.26,NE,44,0.0,0.0,91,0.01,,---,0.06,49.00,VWS V14.01,2013-02-26 22:42:00,
2013-02-26 14:47:00,41.2,38.8,30.26,NE,49,0.0,3.0,91,0.01,,---,0.06,49.00,VWS V14.01,2013-02-26 22:47:00,
2013-02-26 14:50:00,40.9,38.8,30.24,East,96,0.0,4.0,92,0.01,,---,0.07,42.00,VWS V14.01,2013-02-26 22:50:00,
2013-02-26 14:52:00,41.0,38.6,30.26,East,82,0.0,0.0,91,0.01,,---,0.06,60.00,VWS V14.01,2013-02-26 22:52:00,
2013-02-26 14:57:00,41.0,38.6,30.26,East,82,0.0,0.0,91,0.01,,---,0.06,51.00,VWS V14.01,2013-02-26 22:57:00,
2013-02-26 15:00:00,40.7,38.6,30.23,NNE,25,1.0,3.0,92,0.02,,---,0.08,39.00,VWS V14.01,2013-02-26 23:00:00,
2013-02-26 15:02:00,41.0,38.6,30.26,East,82,0.0,0.0,91,0.00,,---,0.06,47.00,VWS V14.01,2013-02-26 23:02:00,
2013-02-26 15:07:00,41.0,38.6,30.26,East,82,0.0,0.0,91,0.01,,---,0.07,54.00,VWS V14.01,2013-02-26 23:07:00,
2013-02-26 15:10:00,40.6,38.5,30.23,North,10,2.0,4.0,92,0.02,,---,0.08,23.00,VWS V14.01,2013-02-26 23:10:00,
2013-02-26 15:12:00,41.1,38.7,30.25,South,178,0.0,0.0,91,0.01,,---,0.07,47.00,VWS V14.01,2013-02-26 23:12:00,
2013-02-26 15:17:00,41.0,38.9,30.25,South,178,0.0,3.0,92,0.01,,---,0.07,47.00,VWS V14.01,2013-02-26 23:17:00,
2013-02-26 15:20:00,40.4,38.3,30.23,North,5,0.0,2.0,92,0.01,,---,0.08,32.00,VWS V14.01,2013-02-26 23:20:00,
2013-02-26 15:22:00,41.1,38.7,30.25,North,355,0.0,1.0,91,0.01,,---,0.07,47.00,VWS V14.01,2013-02-26 23:22:00,
2013-02-26 15:27:00,41.1,38.7,30.25,NE,36,0.0,3.0,91,0.01,,---,0.07,42.00,VWS V14.01,2013-02-26 23:27:00,
2013-02-26 15:30:00,40.4,38.3,30.23,North,10,0.0,3.0,92,0.02,,---,0.09,21.00,VWS V14.01,2013-02-26 23:30:00,
2013-02-26 15:32:00,41.0,38.9,30.25,NE,36,0.0,1.0,92,0.01,,---,0.07,35.00,VWS V14.01,2013-02-26 23:32:00,
2013-02-26 15:37:00,41.0,38.9,30.24,NE,36,0.0,1.0,92,0.01,,---,0.07,40.00,VWS V14.01,2013-02-26 23:37:00,
2013-02-26 15:40:00,40.3,38.2,30.23,North,10,0.0,1.0,92,0.02,,---,0.09,16.00,VWS V14.01,2013-02-26 23:40:00,
2013-02-26 15:42:00,41.1,39.0,30.24,NNE,28,0.0,2.0,92,0.01,,---,0.07,47.00,VWS V14.01,2013-02-26 23:42:00,
2013-02-26 15:48:00,40.9,38.8,30.24,North,5,0.0,4.0,92,0.01,,---,0.07,44.00,VWS V14.01,2013-02-26 23:48:00,
2013-02-26 15:50:00,40.1,38.0,30.22,East,92,0.0,3.0,92,0.02,,---,0.09,11.00,VWS V14.01,2013-02-26 23:50:00,
2013-02-26 15:53:00,40.9,38.8,30.24,North,360,0.0,1.0,92,0.01,,---,0.07,40.00,VWS V14.01,2013-02-26 23:53:00,
2013-02-26 15:58:00,40.7,38.6,30.24,NNE,19,0.0,3.0,92,0.02,,---,0.08,42.00,VWS V14.01,2013-02-26 23:58:00,
2013-02-26 16:00:00,39.9,37.8,30.22,East,91,0.0,2.0,92,0.02,,---,0.09,9.00,VWS V14.01,2013-02-27 00:00:00,
2013-02-26 16:03:00,40.6,38.5,30.23,SE,129,3.0,3.0,92,0.02,,---,0.08,37.00,VWS V14.01,2013-02-27 00:03:00,
2013-02-26 16:08:00,40.6,38.5,30.23,ESE,112,0.0,4.0,92,0.02,,---,0.08,25.00,VWS V14.01,2013-02-27 00:08:00,
2013-02-26 16:10:00,39.8,37.7,30.22,NNE,15,0.0,2.0,92,0.02,,---,0.10,7.00,VWS V14.01,2013-02-27 00:10:00,
2013-02-26 16:13:00,40.5,38.4,30.23,North,5,0.0,2.0,92,0.01,,---,0.08,23.00,VWS V14.01,2013-02-27 00:13:00,
2013-02-26 16:18:00,40.5,38.4,30.23,North,5,0.0,2.0,92,0.01,,---,0.08,26.00,VWS V14.01,2013-02-27 00:18:00,
2013-02-26 16:20:00,39.5,37.4,30.22,ESE,119,0.0,7.0,92,0.03,,---,0.11,5.00,VWS V14.01,2013-02-27 00:20:00,
2013-02-26 16:23:00,40.4,38.3,30.23,North,9,0.0,1.0,92,0.01,,---,0.08,30.00,VWS V14.01,2013-02-27 00:23:00,
2013-02-26 16:28:00,40.4,38.3,30.23,North,5,0.0,2.0,92,0.01,,---,0.08,23.00,VWS V14.01,2013-02-27 00:28:00,
2013-02-26 16:30:00,39.4,37.3,30.22,SE,139,2.0,5.0,92,0.04,,---,0.12,0.00,VWS V14.01,2013-02-27 00:30:00,
2013-02-26 16:33:00,40.4,38.3,30.23,North,10,0.0,0.0,92,0.02,,---,0.09,21.00,VWS V14.01,2013-02-27 00:33:00,
2013-02-26 16:38:00,40.3,38.2,30.23,North,10,0.0,1.0,92,0.02,,---,0.09,19.00,VWS V14.01,2013-02-27 00:38:00,
2013-02-26 16:40:00,39.2,37.3,30.22,NNE,26,1.0,7.0,93,0.04,,---,0.13,0.00,VWS V14.01,2013-02-27 00:40:00,
2013-02-26 16:43:00,40.3,38.2,30.23,North,10,0.0,0.0,92,0.02,,---,0.09,16.00,VWS V14.01,2013-02-27 00:43:00,
2013-02-26 16:48:00,40.2,38.1,30.22,ENE,63,0.0,3.0,92,0.02,,---,0.09,14.00,VWS V14.01,2013-02-27 00:48:00,
2013-02-26 16:50:00,39.0,37.2,30.22,ESE,122,4.0,7.0,93,0.06,,---,0.14,0.00,VWS V14.01,2013-02-27 00:50:00,
2013-02-26 16:53:00,40.0,37.9,30.22,East,92,0.0,1.0,92,0.02,,---,0.09,11.00,VWS V14.01,2013-02-27 00:53:00,
2013-02-26 16:58:00,40.0,37.9,30.22,East,91,1.0,2.0,92,0.02,,---,0.09,9.00,VWS V14.01,2013-02-27 00:58:00,
2013-02-26 17:00:00,38.7,36.8,30.22,ESE,119,2.0,9.0,93,0.06,,---,0.15,0.00,VWS V14.01,2013-02-27 01:00:00,
2013-02-26 17:03:00,39.9,37.8,30.22,East,91,1.0,2.0,92,0.02,,---,0.09,9.00,VWS V14.01,2013-02-27 01:03:00,
2013-02-26 17:08:00,39.8,37.7,30.22,NNE,15,0.0,2.0,92,0.02,,---,0.10,7.00,VWS V14.01,2013-02-27 01:08:00,
2013-02-26 17:10:00,38.5,36.7,30.22,ENE,59,0.0,7.0,93,0.07,,---,0.17,0.00,VWS V14.01,2013-02-27 01:10:00,
2013-02-26 17:13:00,39.7,37.6,30.22,ESE,118,0.0,7.0,92,0.02,,---,0.10,5.00,VWS V14.01,2013-02-27 01:13:00,
2013-02-26 17:18:00,39.6,37.5,30.22,ESE,118,1.0,7.0,92,0.02,,---,0.10,5.00,VWS V14.01,2013-02-27 01:18:00,
2013-02-26 17:20:00,38.3,36.5,30.22,ESE,111,0.0,4.0,93,0.08,,---,0.18,0.00,VWS V14.01,2013-02-27 01:20:00,
2013-02-26 17:23:00,39.6,37.5,30.22,ESE,119,0.0,1.0,92,0.03,,---,0.11,5.00,VWS V14.01,2013-02-27 01:23:00,
2013-02-26 17:28:00,39.5,37.4,30.22,ESE,119,0.0,1.0,92,0.03,,---,0.11,0.00,VWS V14.01,2013-02-27 01:28:00,
2013-02-26 17:30:00,38.0,36.2,30.21,ESE,115,0.0,7.0,93,0.09,,---,0.20,0.00,VWS V14.01,2013-02-27 01:30:00,
2013-02-26 17:33:00,39.4,37.3,30.22,ENE,63,0.0,5.0,92,0.03,,---,0.12,0.00,VWS V14.01,2013-02-27 01:33:00,
2013-02-26 17:38:00,39.3,37.5,30.22,ESE,107,2.0,5.0,93,0.03,,---,0.12,0.00,VWS V14.01,2013-02-27 01:38:00,
2013-02-26 17:40:00,37.8,36.2,30.21,NE,43,0.0,6.0,94,0.09,,---,0.20,0.00,VWS V14.01,2013-02-27 01:40:00,
2013-02-26 17:43:00,39.2,37.3,30.22,ESE,118,4.0,7.0,93,0.04,,---,0.13,0.00,VWS V14.01,2013-02-27 01:43:00,
2013-02-26 17:48:00,39.1,37.2,30.22,East,95,0.0,7.0,93,0.05,,---,0.13,0.00,VWS V14.01,2013-02-27 01:48:00,
2013-02-26 17:50:00,37.6,36.0,30.21,ESE,108,3.0,3.0,94,0.09,,---,0.21,0.00,VWS V14.01,2013-02-27 01:50:00,
2013-02-26 17:53:00,38.9,37.0,30.22,SE,146,2.0,7.0,93,0.05,,---,0.14,0.00,VWS V14.01,2013-02-27 01:53:00,
2013-02-26 17:58:00,38.8,37.0,30.22,SE,133,2.0,7.0,93,0.06,,---,0.15,0.00,VWS V14.01,2013-02-27 01:58:00,
2013-02-26 18:00:00,37.5,35.9,30.21,ESE,120,0.0,4.0,94,0.07,,---,0.21,0.00,VWS V14.01,2013-02-27 02:00:00,
2013-02-26 18:03:00,38.7,36.8,30.22,ESE,121,2.0,4.0,93,0.06,,---,0.15,0.00,VWS V14.01,2013-02-27 02:03:00,
2013-02-26 18:08:00,38.6,36.8,30.22,ESE,115,2.0,7.0,93,0.06,,---,0.16,0.00,VWS V14.01,2013-02-27 02:08:00,
2013-02-26 18:10:00,37.5,35.9,30.21,ESE,118,0.0,7.0,94,0.07,,---,0.22,0.00,VWS V14.01,2013-02-27 02:10:00,
2013-02-26 18:13:00,38.5,36.7,30.22,NNW,331,0.0,3.0,93,0.06,,---,0.17,0.00,VWS V14.01,2013-02-27 02:13:00,
2013-02-26 18:18:00,38.3,36.5,30.22,ENE,71,0.0,4.0,93,0.07,,---,0.17,0.00,VWS V14.01,2013-02-27 02:18:00,
2013-02-26 18:20:00,37.5,35.9,30.21,ESE,118,1.0,3.0,94,0.06,,---,0.22,0.00,VWS V14.01,2013-02-27 02:20:00,
2013-02-26 18:23:00,38.2,36.4,30.21,ESE,102,0.0,7.0,93,0.07,,---,0.18,0.00,VWS V14.01,2013-02-27 02:23:00,
2013-02-26 18:28:00,38.1,36.3,30.21,SE,127,1.0,7.0,93,0.08,,---,0.19,0.00,VWS V14.01,2013-02-27 02:28:00,
2013-02-26 18:30:00,37.5,35.9,30.20,SE,126,4.0,9.0,94,0.04,,---,0.22,0.00,VWS V14.01,2013-02-27 02:30:00,
2013-02-26 18:33:00,37.9,36.1,30.21,East,86,1.0,3.0,93,0.08,,---,0.20,0.00,VWS V14.01,2013-02-27 02:33:00,
2013-02-26 18:38:00,37.8,36.2,30.21,SE,138,1.0,6.0,94,0.09,,---,0.20,0.00,VWS V14.01,2013-02-27 02:38:00,
2013-02-26 18:40:00,37.5,35.9,30.20,ESE,102,2.0,8.0,94,0.02,,---,0.22,0.00,VWS V14.01,2013-02-27 02:40:00,
2013-02-26 18:43:00,37.7,35.9,30.21,ENE,57,2.0,3.0,93,0.08,,---,0.20,0.00,VWS V14.01,2013-02-27 02:43:00,
2013-02-26 18:48:00,37.6,36.0,30.21,West,277,0.0,3.0,94,0.09,,---,0.21,0.00,VWS V14.01,2013-02-27 02:48:00,
2013-02-26 18:50:00,37.6,36.3,30.19,NE,42,2.0,7.0,95,0.02,,---,0.23,0.00,VWS V14.01,2013-02-27 02:50:00,
2013-02-26 18:53:00,37.6,36.0,30.21,East,97,0.0,4.0,94,0.07,,---,0.21,0.00,VWS V14.01,2013-02-27 02:53:00,
2013-02-26 18:58:00,37.5,35.9,30.21,East,89,0.0,4.0,94,0.07,,---,0.21,0.00,VWS V14.01,2013-02-27 02:58:00,
2013-02-26 19:00:00,37.5,36.2,30.19,East,84,5.0,9.0,95,0.02,,---,0.23,0.00,VWS V14.01,2013-02-27 03:00:00,
2013-02-26 19:04:00,37.5,35.9,30.21,SE,130,0.0,1.0,94,0.07,,---,0.22,0.00,VWS V14.01,2013-02-27 03:04:00,
2013-02-26 19:09:00,37.5,35.9,30.21,ENE,78,5.0,7.0,94,0.07,,---,0.22,0.00,VWS V14.01,2013-02-27 03:09:00,
2013-02-26 19:10:00,37.5,36.2,30.19,ENE,62,0.0,10.0,95,0.03,,---,0.24,0.00,VWS V14.01,2013-02-27 03:10:00,
2013-02-26 19:14:00,37.5,35.9,30.21,ESE,113,0.0,2.0,94,0.06,,---,0.22,0.00,VWS V14.01,2013-02-27 03:14:00,
2013-02-26 19:19:00,37.5,35.9,30.20,ESE,108,2.0,3.0,94,0.06,,---,0.22,0.00,VWS V14.01,2013-02-27 03:19:00,
2013-02-26 19:20:00,37.5,36.2,30.19,NNE,17,2.0,7.0,95,0.02,,---,0.24,0.00,VWS V14.01,2013-02-27 03:20:00,
2013-02-26 19:24:00,37.5,35.9,30.20,NW,310,2.0,7.0,94,0.04,,---,0.22,0.00,VWS V14.01,2013-02-27 03:24:00,
2013-02-26 19:29:00,37.5,35.9,30.20,SE,128,2.0,9.0,94,0.04,,---,0.22,0.00,VWS V14.01,2013-02-27 03:29:00,
2013-02-26 19:30:00,37.5,36.2,30.19,North,9,2.0,8.0,95,0.03,,---,0.25,0.00,VWS V14.01,2013-02-27 03:30:00,
2013-02-26 19:34:00,37.5,35.9,30.20,SE,128,2.0,4.0,94,0.02,,---,0.22,0.00,VWS V14.01,2013-02-27 03:34:00,
2013-02-26 19:39:00,37.5,35.9,30.20,East,96,0.0,4.0,94,0.02,,---,0.22,0.00,VWS V14.01,2013-02-27 03:39:00,
2013-02-26 19:40:00,37.6,36.3,30.18,East,84,0.0,10.0,95,0.03,,---,0.25,0.00,VWS V14.01,2013-02-27 03:40:00,
2013-02-26 19:44:00,37.5,35.9,30.19,NNE,25,2.0,7.0,94,0.02,,---,0.22,0.00,VWS V14.01,2013-02-27 03:44:00,
2013-02-26 19:49:00,37.5,36.2,30.19,NNE,30,5.0,7.0,95,0.02,,---,0.22,0.00,VWS V14.01,2013-02-27 03:49:00,
2013-02-26 19:50:00,37.7,36.4,30.18,NNE,14,5.0,9.0,95,0.04,,---,0.26,0.00,VWS V14.01,2013-02-27 03:50:00,
2013-02-26 19:54:00,37.5,36.2,30.19,SE,139,2.0,5.0,95,0.02,,---,0.23,0.00,VWS V14.01,2013-02-27 03:54:00,
2013-02-26 19:59:00,37.5,36.2,30.19,SE,126,3.0,9.0,95,0.02,,---,0.23,0.00,VWS V14.01,2013-02-27 03:59:00,
2013-02-26 20:00:00,37.7,36.4,30.18,ESE,107,0.0,7.0,95,0.04,,---,0.27,0.00,VWS V14.01,2013-02-27 04:00:00,
2013-02-26 20:04:00,37.5,36.2,30.19,SE,139,0.0,5.0,95,0.02,,---,0.24,0.00,VWS V14.01,2013-02-27 04:04:00,
2013-02-26 20:09:00,37.5,36.2,30.19,East,98,1.0,10.0,95,0.02,,---,0.24,0.00,VWS V14.01,2013-02-27 04:09:00,
2013-02-26 20:10:00,37.7,36.4,30.18,SE,127,2.0,10.0,95,0.04,,---,0.27,0.00,VWS V14.01,2013-02-27 04:10:00,
2013-02-26 20:14:00,37.5,36.2,30.19,North,360,2.0,4.0,95,0.02,,---,0.24,0.00,VWS V14.01,2013-02-27 04:14:00,
2013-02-26 20:19:00,37.6,36.3,30.19,NW,323,1.0,7.0,95,0.02,,---,0.24,0.00,VWS V14.01,2013-02-27 04:19:00,
2013-02-26 20:20:00,37.9,36.6,30.17,NE,34,3.0,8.0,95,0.02,,---,0.27,0.00,VWS V14.01,2013-02-27 04:20:00,
2013-02-26 20:24:00,37.5,36.2,30.19,NE,39,3.0,5.0,95,0.03,,---,0.25,0.00,VWS V14.01,2013-02-27 04:24:00,
2013-02-26 20:29:00,37.5,36.2,30.19,North,5,3.0,5.0,95,0.03,,---,0.25,0.00,VWS V14.01,2013-02-27 04:29:00,
2013-02-26 20:30:00,38.0,36.7,30.17,SE,134,2.0,10.0,95,0.02,,---,0.27,0.00,VWS V14.01,2013-02-27 04:30:00,
2013-02-26 20:34:00,37.5,36.2,30.18,SE,130,8.0,8.0,95,0.03,,---,0.25,0.00,VWS V14.01,2013-02-27 04:34:00,
2013-02-26 20:39:00,37.6,36.3,30.18,ENE,77,2.0,10.0,95,0.03,,---,0.25,0.00,VWS V14.01,2013-02-27 04:39:00,
2013-02-26 20:40:00,38.1,36.8,30.17,East,84,0.0,11.0,95,0.02,,---,0.27,0.00,VWS V14.01,2013-02-27 04:40:00,
2013-02-26 20:44:00,37.6,36.3,30.18,NE,34,0.0,9.0,95,0.03,,---,0.25,0.00,VWS V14.01,2013-02-27 04:44:00,
2013-02-26 20:49:00,37.7,36.4,30.18,South,171,2.0,9.0,95,0.04,,---,0.26,0.00,VWS V14.01,2013-02-27 04:49:00,
2013-02-26 20:50:00,38.1,36.8,30.18,East,88,1.0,9.0,95,0.02,,---,0.27,0.00,VWS V14.01,2013-02-27 04:50:00,
2013-02-26 20:54:00,37.7,36.4,30.19,East,97,3.0,7.0,95,0.03,,---,0.26,0.00,VWS V14.01,2013-02-27 04:54:00,
2013-02-26 20:59:00,37.7,36.4,30.18,NNE,22,0.0,7.0,95,0.04,,---,0.27,0.00,VWS V14.01,2013-02-27 04:59:00,
2013-02-26 21:00:00,38.2,36.9,30.17,NNE,17,2.0,8.0,95,0.02,,---,0.28,0.00,VWS V14.01,2013-02-27 05:00:00,
2013-02-26 21:01:00,37.7,36.4,30.18,ESE,107,0.0,7.0,95,0.04,,---,0.27,0.00,VWS V14.01,2013-02-27 05:01:00,
2013-02-26 21:04:00,37.7,36.4,30.18,NE,36,1.0,5.0,95,0.04,,---,0.27,0.00,VWS V14.01,2013-02-27 05:04:00,
2013-02-26 21:09:00,37.7,36.4,30.18,NNW,336,6.0,6.0,95,0.04,,---,0.27,0.00,VWS V14.01,2013-02-27 05:09:00,
2013-02-26 21:10:00,38.2,36.9,30.18,ESE,121,0.0,7.0,95,0.02,,---,0.29,0.00,VWS V14.01,2013-02-27 05:10:00,
2013-02-26 21:11:00,37.7,36.4,30.18,SE,127,2.0,10.0,95,0.04,,---,0.27,0.00,VWS V14.01,2013-02-27 05:11:00,
2013-02-26 21:16:00,37.8,36.5,30.18,NE,40,0.0,8.0,95,0.02,,---,0.27,0.00,VWS V14.01,2013-02-27 05:16:00,
2013-02-26 21:20:00,38.2,36.9,30.18,East,80,7.0,9.0,95,0.04,,---,0.31,0.00,VWS V14.01,2013-02-27 05:20:00,
2013-02-26 21:21:00,37.8,36.5,30.17,NNE,18,2.0,3.0,95,0.02,,---,0.27,0.00,VWS V14.01,2013-02-27 05:21:00,
2013-02-26 21:26:00,37.9,36.6,30.17,SE,128,6.0,10.0,95,0.02,,---,0.27,0.00,VWS V14.01,2013-02-27 05:26:00,
2013-02-26 21:30:00,38.2,36.9,30.18,ESE,116,2.0,11.0,95,0.06,,---,0.32,0.00,VWS V14.01,2013-02-27 05:30:00,
2013-02-26 21:31:00,38.0,36.7,30.18,SE,126,4.0,4.0,95,0.02,,---,0.27,0.00,VWS V14.01,2013-02-27 05:31:00,
2013-02-26 21:37:00,38.0,36.7,30.17,NE,48,0.0,4.0,95,0.02,,---,0.27,0.00,VWS V14.01,2013-02-27 05:37:00,
2013-02-26 21:40:00,38.1,36.8,30.18,ENE,74,0.0,5.0,95,0.06,,---,0.32,0.00,VWS V14.01,2013-02-27 05:40:00,
2013-02-26 21:42:00,38.1,36.8,30.18,NE,36,4.0,4.0,95,0.02,,---,0.27,0.00,VWS V14.01,2013-02-27 05:42:00,
2013-02-26 21:47:00,38.1,36.8,30.18,SE,142,0.0,9.0,95,0.02,,---,0.27,0.00,VWS V14.01,2013-02-27 05:47:00,
2013-02-26 21:50:00,38.0,36.7,30.19,East,96,0.0,5.0,95,0.06,,---,0.33,0.00,VWS V14.01,2013-02-27 05:50:00,
2013-02-26 21:52:00,38.2,36.9,30.18,East,88,0.0,1.0,95,0.01,,---,0.27,0.00,VWS V14.01,2013-02-27 05:52:00,
2013-02-26 21:57:00,38.2,36.9,30.18,ESE,103,0.0,8.0,95,0.01,,---,0.27,0.00,VWS V14.01,2013-02-27 05:57:00,
2013-02-26 22:00:00,38.0,36.7,30.20,East,88,0.0,6.0,95,0.07,,---,0.34,0.00,VWS V14.01,2013-02-27 06:00:00,
2013-02-26 22:02:00,38.2,36.9,30.17,ESE,112,3.0,3.0,95,0.02,,---,0.28,0.00,VWS V14.01,2013-02-27 06:02:00,
2013-02-26 22:07:00,38.2,36.9,30.18,SE,138,3.0,7.0,95,0.02,,---,0.29,0.00,VWS V14.01,2013-02-27 06:07:00,
2013-02-26 22:10:00,38.0,36.7,30.20,East,88,0.0,2.0,95,0.08,,---,0.35,0.00,VWS V14.01,2013-02-27 06:10:00,
2013-02-26 22:12:00,38.2,36.9,30.18,ESE,121,0.0,0.0,95,0.02,,---,0.29,0.00,VWS V14.01,2013-02-27 06:12:00,
2013-02-26 22:17:00,38.2,36.9,30.18,East,98,0.0,8.0,95,0.03,,---,0.30,0.00,VWS V14.01,2013-02-27 06:17:00,
2013-02-26 22:20:00,37.9,36.6,30.20,East,88,0.0,0.0,95,0.10,,---,0.39,0.00,VWS V14.01,2013-02-27 06:20:00,
2013-02-26 22:22:00,38.2,36.9,30.18,East,97,6.0,7.0,95,0.04,,---,0.31,0.00,VWS V14.01,2013-02-27 06:22:00,
2013-02-26 22:27:00,38.2,36.9,30.18,ESE,121,0.0,11.0,95,0.05,,---,0.31,0.00,VWS V14.01,2013-02-27 06:27:00,
2013-02-26 22:30:00,37.7,36.4,30.19,East,92,0.0,3.0,95,0.11,,---,0.42,0.00,VWS V14.01,2013-02-27 06:30:00,
2013-02-26 22:32:00,38.2,36.9,30.18,ESE,115,1.0,2.0,95,0.06,,---,0.32,0.00,VWS V14.01,2013-02-27 06:32:00,
2013-02-26 22:37:00,38.1,36.8,30.18,ESE,104,0.0,5.0,95,0.06,,---,0.32,0.00,VWS V14.01,2013-02-27 06:37:00,
2013-02-26 22:40:00,37.4,36.1,30.19,East,80,5.0,9.0,95,0.11,,---,0.43,0.00,VWS V14.01,2013-02-27 06:40:00,
2013-02-26 22:42:00,38.0,36.7,30.18,ENE,74,0.0,0.0,95,0.06,,---,0.32,0.00,VWS V14.01,2013-02-27 06:42:00,
2013-02-26 22:47:00,38.0,36.7,30.18,East,92,5.0,5.0,95,0.06,,---,0.33,0.00,VWS V14.01,2013-02-27 06:47:00,
2013-02-26 22:50:00,37.3,36.0,30.19,ESE,123,1.0,5.0,95,0.11,,---,0.43,0.00,VWS V14.01,2013-02-27 06:50:00,
2013-02-26 22:52:00,38.0,36.7,30.19,SE,134,6.0,6.0,95,0.06,,---,0.33,0.00,VWS V14.01,2013-02-27 06:52:00,
2013-02-26 22:57:00,38.0,36.7,30.19,East,88,0.0,6.0,95,0.07,,---,0.34,0.00,VWS V14.01,2013-02-27 06:57:00,
2013-02-26 23:00:00,37.2,36.2,30.19,ESE,118,0.0,6.0,96,0.11,,---,0.00,0.00,VWS V14.01,2013-02-27 07:00:00,
2013-02-26 23:02:00,38.0,36.7,30.20,East,88,0.0,0.0,95,0.06,,---,0.34,0.00,VWS V14.01,2013-02-27 07:02:00,
2013-02-26 23:07:00,38.0,36.7,30.20,East,88,1.0,1.0,95,0.07,,---,0.35,0.00,VWS V14.01,2013-02-27 07:07:00,
2013-02-26 23:10:00,37.1,36.1,30.18,East,90,0.0,5.0,96,0.10,,---,0.00,0.00,VWS V14.01,2013-02-27 07:10:00,
2013-02-26 23:12:00,38.0,36.7,30.20,East,88,0.0,0.0,95,0.07,,---,0.36,0.00,VWS V14.01,2013-02-27 07:12:00,
2013-02-26 23:17:00,38.0,36.7,30.19,East,88,0.0,0.0,95,0.09,,---,0.38,0.00,VWS V14.01,2013-02-27 07:17:00,
2013-02-26 23:20:00,37.1,36.1,30.18,ESE,105,3.0,5.0,96,0.09,,---,0.00,0.00,VWS V14.01,2013-02-27 07:20:00,
2013-02-26 23:22:00,37.9,36.6,30.20,East,88,0.0,1.0,95,0.09,,---,0.39,0.00,VWS V14.01,2013-02-27 07:22:00,
2013-02-26 23:27:00,37.8,36.5,30.19,East,92,0.0,3.0,95,0.10,,---,0.41,0.00,VWS V14.01,2013-02-27 07:27:00,
2013-02-26 23:30:00,37.2,36.2,30.18,SE,134,4.0,7.0,96,0.05,,---,0.00,0.00,VWS V14.01,2013-02-27 07:30:00,
2013-02-26 23:32:00,37.7,36.4,30.19,East,92,1.0,1.0,95,0.09,,---,0.42,0.00,VWS V14.01,2013-02-27 07:32:00,
2013-02-26 23:37:00,37.5,36.2,30.19,ESE,122,2.0,4.0,95,0.10,,---,0.43,0.00,VWS V14.01,2013-02-27 07:37:00,
2013-02-26 23:40:00,37.3,36.3,30.19,East,87,0.0,7.0,96,0.02,,---,0.00,0.00,VWS V14.01,2013-02-27 07:40:00,
2013-02-26 23:42:00,37.4,36.1,30.19,East,80,0.0,5.0,95,0.11,,---,0.43,0.00,VWS V14.01,2013-02-27 07:42:00,
2013-02-26 23:47:00,37.3,36.0,30.19,East,82,0.0,5.0,95,0.11,,---,0.43,0.00,VWS V14.01,2013-02-27 07:47:00,
2013-02-26 23:50:00,37.5,36.5,30.19,ESE,105,2.0,8.0,96,0.01,,---,0.00,0.00,VWS V14.01,2013-02-27 07:50:00,
2013-02-26 23:52:00,37.3,36.0,30.19,ESE,123,0.0,1.0,95,0.10,,---,0.43,0.00,VWS V14.01,2013-02-27 07:52:00,
2013-02-26 23:57:00,37.2,35.9,30.19,ENE,75,2.0,5.0,95,0.10,,---,0.43,0.00,VWS V14.01,2013-02-27 07:57:00,